Wind_Speed
15 14 15 17 13 16 16 19 23 24 28 36 38 40 39 40 41 44 45 45 42 45 48 48 51 50 44 38 37 37 40 42 42 44 44 44 44 44 46 46 47 49 50 53
16 15 19 22 19 20 24 27 30 32 34 37 39 40 42 42 42 42 43 40 41 45 44 47 49 47 42 41 44 40 39 45 46 44 45 46 47 48 48 49 49 49 50 51
14 17 19 25 27 30 31 33 37 38 36 37 41 43 41 39 38 24 29 34 37 40 44 46 44 45 44 48 48 43 40 40 43 47 46 48 49 50 51 52 50 51 53 53
16 21 25 30 32 35 34 34 37 39 41 42 40 45 35 29 17 21 22 30 32 40 44 50 60 55 49 50 47 47 44 42 39 43 48 47 48 49 52 53 54 53 55 55
22 25 28 32 37 35 34 36 37 38 38 39 33 30 34 15 27 23 22 25 29 33 31 32 42 60 58 53 49 48 46 50 44 41 38 36 41 45 49 51 51 52 53 56
25 28 33 36 37 38 41 39 42 42 40 40 30 26 26 25 28 29 31 33 35 40 43 49 54 58 62 56 57 47 48 43 49 48 40 34 40 45 47 51 50 49 52 54
24 30 32 35 38 36 35 36 41 43 38 35 29 31 22 28 37 41 41 44 46 43 52 65 61 59 66 64 55 51 54 55 55 51 40 35 37 40 37 41 45 44 45 48
31 26 33 33 35 37 35 35 35 42 42 42 36 35 28 31 33 43 45 45 48 54 54 51 52 55 66 69 62 56 60 57 60 42 39 42 41 43 37 37 43 42 44 45
35 32 27 33 33 30 29 28 33 39 42 45 44 40 28 25 41 45 45 50 56 55 46 46 52 66 69 65 60 64 57 58 68 63 66 51 42 48 46 43 41 43 41 44
34 36 29 28 28 27 33 39 39 37 42 47 43 42 35 38 43 49 51 48 49 56 52 55 52 58 65 65 66 72 72 76 73 70 65 48 49 45 47 46 44 39 39 42
36 34 30 29 31 38 40 34 32 34 37 43 44 46 37 47 59 59 58 54 54 52 56 59 63 68 68 67 65 66 63 66 69 61 58 61 55 52 48 44 43 38 39 38
30 32 34 34 34 40 38 41 42 40 44 42 51 50 45 48 52 52 55 56 55 47 47 52 53 50 54 56 58 65 70 66 55 52 50 48 46 50 46 43 39 40 37 35
28 32 40 41 35 33 36 36 38 39 35 40 44 51 49 47 41 54 48 53 52 56 46 44 48 49 53 53 55 56 55 54 47 44 44 46 45 42 43 40 39 37 34 32
34 36 39 40 41 43 43 42 38 31 42 45 42 50 52 49 49 51 52 52 54 52 42 47 49 53 56 58 55 54 54 53 49 44 42 43 40 40 38 37 38 34 34 33
37 37 40 41 42 43 43 42 41 40 38 38 34 31 27 43 47 44 38 38 37 41 45 50 56 58 61 62 62 59 55 53 49 44 41 40 40 39 36 36 34 31 31 31
36 37 41 40 40 40 37 37 34 38 35 38 36 34 38 42 41 34 34 40 42 45 49 52 55 58 58 57 57 55 52 50 46 41 40 40 39 38 36 35 28 27 27 27
34 36 40 40 40 40 38 39 39 31 29 38 39 37 36 36 36 39 39 45 49 52 52 57 56 51 49 49 46 43 39 38 38 35 34 34 35 35 35 29 24 26 24 23
37 43 46 46 44 44 44 35 33 35 34 33 34 37 36 35 34 41 46 54 57 56 59 57 50 44 41 38 38 36 33 30 26 26 28 29 29 30 26 23 23 23 22 23
43 45 46 44 44 43 34 34 35 37 28 37 37 36 36 39 42 42 52 55 59 62 56 50 45 40 35 30 28 26 23 19 20 20 21 21 20 19 20 22 22 20 19 21
41 45 45 44 44 42 39 34 34 33 37 37 38 40 42 45 50 52 54 61 58 52 50 47 41 36 30 30 27 24 21 19 17 17 16 16 18 19 20 20 20 19 19 20
41 42 42 42 42 33 31 29 34 38 39 34 37 42 44 49 55 58 61 57 51 44 34 30 29 25 24 24 22 19 18 16 18 21 20 19 20 20 20 20 20 20 19 18
43 45 43 42 38 30 29 32 37 35 32 36 37 42 47 51 54 58 53 38 30 27 25 24 23 21 19 19 17 14 14 14 15 17 22 25 23 22 20 21 21 20 15 17
42 44 42 41 33 30 34 39 40 36 37 38 39 43 49 53 56 50 33 25 29 32 31 29 27 25 22 17 14 14 11 13 13 12 14 22 30 28 24 23 22 20 17 18
42 42 42 39 31 32 36 37 37 37 37 35 39 45 52 53 50 38 26 28 34 33 32 31 30 29 28 25 21 17 14 13 11 9 8 13 20 25 24 20 19 19 19 19
42 42 41 39 35 34 34 34 32 28 32 34 40 47 53 53 41 34 24 30 34 31 28 30 30 26 24 23 21 18 18 14 11 7 7 10 14 17 19 21 20 21 20 18
41 41 42 37 37 37 36 32 29 32 33 37 43 47 53 48 37 28 25 32 32 28 28 26 28 25 21 19 15 15 12 15 11 8 10 14 15 16 17 18 18 17 18 17
Wind_Direction
269 275 281 287 299 304 296 283 282 283 284 284 292 295 299 300 301 303 300 297 290 285 291 293 293 296 295 294 288 285 285 286 287 285 282 278 273 271 269 269 268 267 267 267
270 276 287 286 293 295 294 292 288 286 286 291 292 295 297 302 300 294 292 292 291 295 294 290 286 284 291 292 286 283 285 287 286 285 283 281 279 277 274 271 268 266 265 264
283 282 285 292 298 297 296 295 293 296 295 296 296 296 301 299 297 296 291 287 283 290 290 286 285 290 288 281 279 277 274 276 286 286 284 282 280 277 274 273 271 269 265 263
287 287 291 294 293 290 297 294 296 297 298 301 299 300 304 294 305 295 267 271 277 274 274 284 293 291 292 285 288 289 283 278 282 285 281 278 278 279 277 274 270 266 265 262
292 294 293 288 288 296 298 294 294 296 297 297 303 298 305 321 294 271 247 271 276 271 274 279 283 287 291 296 294 299 299 291 290 285 280 287 290 285 278 275 273 270 264 261
297 295 292 296 301 308 307 307 303 304 306 306 314 293 307 283 269 270 266 265 259 261 264 273 272 281 288 293 292 293 302 299 301 282 265 286 285 291 290 283 275 273 269 264
306 300 298 306 309 307 306 303 305 304 302 304 304 297 303 273 263 263 259 262 262 263 269 273 270 273 281 285 286 284 283 300 300 282 268 288 288 287 290 284 284 275 272 266
307 305 307 308 304 306 308 308 308 304 307 304 304 304 308 286 270 262 260 261 257 259 256 262 265 266 276 278 277 281 271 295 298 292 281 291 297 293 294 282 276 269 276 268
308 310 311 307 309 308 300 299 301 300 304 300 303 305 298 286 280 271 272 284 287 285 276 279 278 266 263 264 271 276 272 285 294 289 282 285 293 296 299 280 270 265 273 269
303 305 308 308 306 305 304 308 310 308 306 302 303 308 299 280 281 288 285 276 269 271 272 270 271 272 279 283 282 281 286 286 282 284 287 280 282 293 284 275 269 269 274 263
309 310 313 313 311 308 310 308 305 301 294 290 291 299 294 280 284 288 286 283 285 280 287 286 284 285 285 284 280 277 281 283 277 286 279 295 283 287 277 271 271 272 275 253
311 312 311 312 315 311 312 312 315 301 298 282 284 288 289 291 290 294 292 292 294 293 294 291 287 283 286 280 280 277 281 285 284 284 281 274 269 275 276 274 275 275 266 254
313 314 310 311 312 311 305 302 298 291 288 293 289 291 292 291 288 302 295 288 290 296 300 292 290 289 290 286 286 289 287 283 282 275 269 268 265 268 271 274 277 272 256 255
316 318 316 316 316 313 316 314 309 295 291 302 294 292 288 293 299 295 294 293 292 297 290 291 290 292 291 290 288 285 283 283 279 275 270 266 267 269 268 278 275 263 248 251
318 320 316 320 318 317 316 313 304 309 297 299 300 300 294 300 297 303 301 301 297 294 294 293 293 292 290 289 287 286 285 281 277 274 267 266 265 267 271 277 273 252 248 252
322 321 320 323 313 313 315 308 310 305 300 296 289 299 304 306 304 304 303 300 300 296 293 293 293 291 289 287 286 286 284 282 279 272 265 263 264 266 268 273 258 247 245 246
316 318 318 324 326 327 323 318 315 310 303 303 304 308 305 306 307 306 304 305 304 303 302 302 299 292 290 289 289 288 286 282 274 269 263 261 259 262 267 262 240 238 243 250
325 330 330 329 326 326 322 316 315 313 314 309 309 310 309 306 306 313 313 310 308 306 306 303 302 301 299 296 291 290 287 280 269 260 257 257 259 262 256 239 232 236 238 242
332 329 326 326 323 323 315 308 310 313 307 307 311 314 314 313 315 316 312 311 312 312 309 308 308 307 305 298 298 301 296 282 265 262 266 262 253 241 233 236 239 236 232 232
327 328 326 324 320 322 316 313 314 310 311 314 309 311 313 316 315 316 318 317 316 312 310 307 306 305 302 301 297 293 290 278 264 252 247 239 232 224 225 233 234 235 232 225
326 325 323 322 322 320 317 316 315 317 316 314 312 316 321 321 321 324 320 321 317 320 321 321 319 317 313 308 295 286 293 282 265 249 238 229 227 226 224 224 231 234 234 234
328 324 326 323 325 320 317 312 313 316 318 320 325 326 324 322 324 320 324 327 338 343 338 333 327 324 322 315 303 290 284 285 277 260 241 230 223 227 224 224 228 233 236 222
326 326 326 325 324 314 312 311 315 314 317 321 324 326 325 325 323 325 328 330 330 329 324 319 314 308 303 295 289 285 283 283 282 273 246 228 225 224 222 218 219 229 227 207
328 326 327 326 319 314 308 309 314 312 314 320 323 327 326 324 324 332 324 326 329 330 331 330 325 314 301 290 276 267 269 280 280 280 244 224 219 215 215 213 214 220 213 204
331 327 328 329 322 321 309 308 312 315 314 320 324 323 327 330 333 332 323 326 330 338 338 336 332 323 315 300 283 266 254 252 260 251 218 195 192 192 192 198 203 201 199 204
329 328 328 328 325 322 318 314 312 310 316 318 320 324 329 332 333 330 327 331 341 348 342 334 330 322 312 302 287 251 244 220 224 205 186 171 164 166 171 179 186 189 191 189
Height
5869 5868 5866 5866 5866 5865 5865 5864 5862 5861 5859 5854 5852 5849 5847 5843 5839 5834 5830 5827 5823 5817 5814 5809 5807 5807 5809 5812 5813 5812 5807 5807 5808 5806 5806 5806 5806 5807 5807 5808 5808 5809 5811 5809
5864 5864 5861 5861 5861 5861 5859 5857 5855 5854 5852 5848 5844 5842 5838 5834 5830 5826 5820 5818 5813 5807 5806 5802 5800 5800 5802 5800 5798 5800 5798 5794 5793 5792 5791 5792 5792 5792 5793 5794 5796 5799 5800 5800
5860 5860 5858 5856 5854 5852 5852 5848 5845 5843 5842 5839 5833 5831 5830 5827 5819 5815 5811 5808 5807 5802 5796 5792 5790 5791 5792 5789 5787 5788 5789 5788 5783 5779 5779 5779 5778 5779 5779 5779 5782 5784 5786 5787
5856 5854 5852 5850 5848 5844 5844 5840 5836 5832 5830 5828 5823 5818 5825 5814 5811 5806 5805 5803 5801 5796 5791 5782 5777 5776 5775 5771 5770 5772 5773 5774 5770 5763 5762 5764 5764 5765 5764 5765 5766 5768 5769 5772
5851 5848 5846 5842 5838 5838 5836 5832 5829 5825 5822 5818 5819 5809 5809 5805 5800 5798 5796 5791 5785 5774 5775 5770 5764 5762 5760 5758 5755 5755 5753 5753 5752 5750 5747 5748 5749 5749 5750 5750 5750 5751 5754 5754
5844 5841 5837 5834 5831 5827 5823 5820 5816 5813 5809 5807 5806 5799 5801 5796 5792 5791 5788 5781 5774 5769 5765 5761 5757 5752 5747 5748 5744 5743 5739 5736 5735 5735 5733 5734 5734 5735 5734 5734 5735 5735 5737 5738
5839 5832 5828 5827 5824 5820 5817 5813 5806 5804 5801 5799 5798 5794 5796 5790 5785 5781 5778 5774 5766 5763 5758 5756 5749 5743 5740 5739 5737 5733 5727 5723 5721 5719 5723 5722 5720 5721 5719 5721 5721 5722 5723 5723
5829 5828 5824 5820 5816 5812 5807 5802 5798 5790 5789 5787 5788 5785 5785 5778 5772 5767 5763 5761 5756 5756 5751 5746 5738 5731 5730 5726 5723 5719 5716 5712 5712 5712 5710 5711 5710 5706 5705 5707 5709 5706 5710 5710
5821 5820 5818 5810 5808 5805 5801 5798 5794 5787 5783 5776 5776 5775 5774 5769 5755 5752 5753 5750 5744 5743 5740 5735 5729 5723 5714 5712 5711 5707 5702 5698 5698 5700 5701 5702 5699 5693 5692 5694 5693 5693 5693 5697
5815 5812 5811 5806 5801 5799 5793 5788 5782 5777 5770 5764 5762 5760 5761 5754 5745 5739 5737 5737 5735 5731 5729 5724 5718 5710 5705 5702 5700 5693 5686 5685 5685 5684 5686 5684 5684 5680 5680 5680 5679 5677 5678 5683
5808 5804 5803 5798 5795 5788 5785 5780 5775 5771 5765 5756 5750 5750 5753 5739 5729 5726 5718 5721 5718 5716 5711 5706 5702 5696 5691 5688 5684 5681 5675 5670 5670 5670 5670 5668 5666 5665 5667 5666 5665 5664 5665 5669
5802 5798 5794 5792 5788 5780 5774 5769 5765 5758 5753 5750 5743 5737 5737 5728 5717 5716 5709 5705 5703 5701 5698 5694 5687 5682 5676 5671 5668 5664 5660 5659 5658 5657 5655 5654 5652 5653 5652 5652 5651 5651 5653 5656
5796 5792 5785 5783 5783 5775 5768 5767 5758 5750 5743 5735 5729 5723 5722 5714 5710 5707 5699 5691 5688 5687 5683 5677 5673 5670 5663 5657 5651 5648 5643 5640 5640 5639 5639 5636 5637 5639 5637 5638 5638 5638 5641 5644
5788 5785 5778 5774 5768 5760 5755 5750 5744 5738 5730 5722 5721 5712 5709 5707 5700 5696 5689 5682 5679 5675 5668 5665 5660 5654 5647 5640 5636 5632 5627 5623 5623 5623 5624 5624 5625 5624 5625 5623 5624 5626 5630 5634
5781 5777 5770 5766 5757 5750 5745 5740 5733 5727 5720 5715 5713 5703 5698 5697 5691 5683 5677 5673 5669 5665 5660 5653 5645 5638 5630 5623 5617 5613 5611 5608 5607 5608 5608 5610 5610 5610 5610 5612 5613 5616 5620 5624
5774 5769 5762 5758 5750 5744 5739 5730 5726 5719 5714 5708 5703 5699 5691 5688 5681 5675 5670 5664 5660 5654 5647 5640 5632 5623 5615 5607 5601 5597 5595 5592 5590 5592 5593 5594 5595 5597 5600 5603 5604 5608 5612 5616
5769 5763 5756 5749 5739 5733 5728 5722 5716 5711 5706 5698 5693 5689 5684 5678 5672 5666 5660 5654 5646 5638 5631 5622 5614 5605 5599 5592 5587 5583 5580 5579 5577 5577 5579 5581 5583 5587 5591 5593 5597 5602 5606 5610
5760 5751 5742 5736 5730 5724 5718 5710 5706 5701 5698 5692 5687 5681 5676 5670 5666 5658 5649 5637 5629 5620 5612 5603 5597 5590 5585 5579 5573 5569 5568 5568 5567 5568 5569 5571 5575 5579 5582 5586 5592 5596 5600 5603
5749 5744 5737 5731 5723 5719 5712 5704 5700 5693 5692 5684 5678 5672 5666 5660 5656 5653 5638 5628 5615 5603 5592 5585 5580 5577 5573 5568 5564 5562 5560 5560 5560 5562 5563 5565 5568 5572 5577 5580 5585 5590 5595 5599
5746 5738 5730 5722 5716 5710 5702 5698 5694 5687 5684 5677 5669 5664 5658 5652 5642 5637 5626 5613 5600 5591 5582 5573 5569 5565 5562 5559 5557 5555 5554 5554 5554 5556 5557 5559 5562 5568 5572 5575 5580 5585 5589 5593
5740 5734 5727 5719 5710 5705 5696 5693 5687 5682 5677 5671 5664 5657 5651 5641 5631 5620 5610 5601 5589 5578 5572 5567 5561 5558 5554 5551 5548 5549 5548 5548 5548 5549 5552 5554 5558 5563 5567 5572 5575 5580 5585 5589
5734 5726 5719 5711 5705 5699 5693 5689 5683 5676 5670 5662 5658 5651 5642 5634 5625 5613 5602 5591 5582 5576 5570 5564 5559 5555 5551 5548 5545 5544 5543 5543 5542 5542 5544 5549 5553 5558 5563 5568 5572 5576 5582 5585
5728 5720 5713 5706 5699 5692 5688 5680 5675 5669 5663 5658 5651 5644 5634 5625 5615 5604 5594 5587 5581 5574 5567 5561 5556 5551 5547 5545 5542 5541 5540 5539 5538 5537 5538 5542 5547 5553 5558 5564 5569 5573 5578 5582
5721 5714 5706 5699 5693 5687 5680 5674 5668 5662 5657 5651 5644 5635 5626 5616 5605 5597 5589 5583 5577 5569 5562 5556 5550 5545 5540 5538 5537 5536 5536 5536 5535 5534 5534 5537 5541 5548 5555 5562 5567 5571 5574 5579
5715 5708 5700 5693 5685 5680 5674 5667 5662 5658 5651 5645 5637 5629 5619 5608 5598 5590 5585 5579 5572 5566 5559 5552 5545 5538 5533 5529 5528 5529 5531 5533 5533 5533 5533 5535 5539 5545 5552 5558 5563 5568 5573 5577
5709 5701 5693 5686 5679 5672 5666 5661 5656 5650 5644 5637 5630 5622 5613 5601 5593 5586 5581 5575 5568 5562 5556 5548 5539 5531 5525 5521 5519 5522 5525 5528 5531 5533 5534 5537 5541 5546 5552 5557 5562 5567 5572 5577